Vertical_Velocity
-7 1 -2 1 -0 1 2 -1 1 0 1 4 2 -0 4 3 3 1 2 1 1 -1 -1 -3 -1 -1 1
1 -3 -3 1 2 -2 3 2 -0 -0 -0 2 -1 3 2 -0 5 4 1 3 1 -1 1 0 -1 -2 -0
2 -4 -4 -1 -3 0 4 4 1 -1 -1 -1 -1 2 -0 2 -0 3 1 3 1 3 -1 2 -2 -1 -1
-7 1 -5 -2 0 -1 -8 1 -7 -1 -2 -0 2 -0 1 2 -0 5 -2 3 1 1 0 1 -1 -0 -1
-11 3 -2 -3 0 7 -2 -6 0 3 -2 -2 6 -2 1 0 1 5 -3 2 2 0 -0 0 0 -1 -1
-7 -4 -1 -1 18 6 10 -0 -18 -2 1 1 1 2 5 2 4 2 3 3 1 -1 -2 2 -1 -1 -0
-11 -5 -9 7 7 -2 -2 -3 3 9 7 3 -1 -0 2 1 -1 -0 -3 4 4 1 1 1 -2 -2 -1
-9 0 -9 0 2 5 7 15 3 2 3 -1 7 1 0 0 1 0 4 1 2 2 1 -3 -3 -0 0
3 1 2 -3 4 10 5 7 2 4 -1 13 11 -1 2 0 5 2 4 1 -1 -2 -3 -2 -2 -2 0
-1 4 1 4 2 3 3 7 3 3 7 5 7 14 0 5 7 2 -1 0 -3 -1 3 2 -1 -2 -2
-1 1 6 3 -1 3 3 -1 3 -0 3 8 10 6 5 -3 -1 -4 -1 -0 0 2 4 -1 1 -3 -0
0 3 -2 -1 2 0 4 -1 3 5 9 2 5 4 -1 -1 1 2 3 -0 4 0 0 -0 3 -1 -1
2 -1 1 3 6 5 3 -0 2 6 4 4 2 -2 0 -1 1 3 8 2 -1 1 -2 0 3 -5 0
-1 1 5 1 3 5 8 8 6 10 5 0 0 2 -0 4 7 3 4 1 1 -2 -1 3 -0 -4 0
0 3 0 -1 0 3 6 3 4 5 1 1 3 4 4 4 4 5 0 3 -2 -0 2 2 0 -1 2
1 0 -2 -2 -1 -1 -0 0 2 4 2 4 4 1 2 1 3 -0 1 0 0 -2 -2 -1 2 2 0
0 1 -0 4 2 1 3 3 4 3 1 1 2 2 1 4 2 2 0 -1 1 0 -1 -5 -0 3 -2
Height
3083 3086 3088 3090 3092 3093 3094 3097 3098 3098 3098 3099 3098 3098 3100 3101 3103 3103 3104 3104 3104 3103 3102 3101 3099 3097 3095
3073 3075 3078 3082 3082 3084 3085 3085 3089 3090 3090 3090 3090 3091 3092 3092 3093 3094 3095 3096 3095 3095 3093 3092 3090 3089 3086
3061 3064 3066 3070 3071 3074 3075 3076 3078 3081 3082 3082 3082 3083 3083 3084 3085 3085 3087 3087 3086 3085 3084 3083 3082 3080 3077
3051 3052 3054 3058 3060 3062 3065 3066 3070 3070 3071 3073 3074 3075 3076 3077 3076 3076 3078 3077 3077 3076 3075 3074 3073 3071 3068
3039 3041 3042 3044 3049 3053 3054 3057 3058 3058 3060 3061 3064 3065 3067 3067 3068 3068 3069 3068 3067 3067 3066 3065 3063 3060 3057
3027 3029 3031 3035 3038 3041 3043 3043 3046 3051 3050 3051 3052 3054 3056 3058 3060 3059 3059 3058 3058 3058 3056 3055 3053 3049 3046
3015 3015 3020 3024 3030 3029 3030 3032 3034 3037 3038 3040 3041 3043 3046 3049 3049 3050 3049 3048 3048 3048 3046 3044 3042 3039 3035
3003 3006 3009 3014 3014 3019 3019 3020 3021 3026 3027 3028 3032 3034 3036 3039 3039 3039 3038 3038 3038 3037 3034 3032 3030 3027 3024
2993 2995 2996 2999 3004 3005 3007 3010 3011 3013 3016 3019 3022 3024 3026 3028 3028 3028 3029 3029 3028 3025 3023 3020 3017 3014 3012
2981 2982 2984 2987 2990 2994 2995 2998 3000 3002 3007 3010 3013 3014 3015 3018 3019 3019 3019 3018 3016 3013 3011 3008 3005 3002 3000
2968 2969 2972 2975 2978 2982 2985 2987 2990 2993 2997 2999 3004 3005 3006 3007 3008 3008 3007 3006 3003 3001 2999 2996 2993 2989 2988
2960 2961 2963 2967 2971 2972 2975 2978 2983 2987 2989 2992 2995 2996 2996 2997 2998 2997 2996 2994 2992 2990 2987 2984 2982 2980 2977
2954 2955 2958 2960 2962 2965 2968 2970 2974 2978 2981 2984 2987 2987 2988 2988 2988 2986 2986 2984 2981 2978 2975 2974 2973 2970 2969
2951 2952 2953 2954 2956 2958 2961 2964 2968 2971 2974 2976 2977 2977 2978 2978 2977 2977 2975 2972 2970 2967 2965 2966 2964 2961 2958
2945 2947 2948 2950 2952 2954 2956 2959 2963 2966 2966 2967 2968 2968 2968 2968 2968 2966 2963 2962 2959 2958 2956 2956 2957 2953 2948
2937 2940 2943 2945 2947 2950 2952 2955 2957 2958 2958 2959 2959 2960 2960 2959 2958 2955 2953 2952 2951 2949 2947 2946 2947 2944 2938
2930 2932 2935 2939 2942 2944 2946 2948 2948 2949 2950 2951 2951 2951 2950 2949 2949 2947 2945 2943 2943 2942 2939 2935 2932 2934 2930